Hourly Data Report for October 06, 2017

All times are specified in Local Standard Time (LST). Add 1 hour to adjust for Daylight Saving Time where and when it is observed.

TRACADIE
NOVA SCOTIA

45°36'30.080" N
61°40'47.020" W
66.70 m
8205895
71308
XTD

Download Data

Hourly Data (October 2017)
Hourly Data Report for October 6, 2017
Temp Definition
°C
Dew Point Temp Definition
°C
Rel Hum Definition
%
Wind Dir Definition
10's deg

Wind Spd Definition
km/h
Visibility Definition
km
Stn Press Definition
kPa
Hmdx Definition


Wind Chill Definition


Weather Definition


TIME
00:00 13.2 11.0 87 22 12   100.61     LegendNANA
01:00 12.8 10.5 86 19 15   100.57     LegendNANA
02:00 12.4 9.4 82 19 16   100.52     LegendNANA
03:00 12.6 8.8 78 20 19   100.52     LegendNANA
04:00 13.2 8.5 73 19 21   100.50     LegendNANA
05:00 14.3 9.5 73 19 22   100.53     LegendNANA
06:00 13.4 10.0 80 19 23   100.54     LegendNANA
07:00 13.6 10.0 79 22 20   100.63     LegendNANA
08:00 14.5 10.6 77 24 16   100.69     LegendNANA
09:00 15.9 11.8 77 24 11   100.75     LegendNANA
10:00 16.8 11.9 73 28 10   100.78     LegendNANA
11:00 17.3 12.6 74 31 13   100.79     LegendNANA
12:00 18.1 12.1 68 31 14   100.75     LegendNANA
13:00 18.4 11.0 62 31 15   100.72     LegendNANA
14:00 16.5 8.9 61 31 16   100.79     LegendNANA
15:00 15.3 7.9 61 30 12   100.77     LegendNANA
16:00 14.9 8.3 64 26 6   100.82     LegendNANA
17:00 14.0 9.8 76 21 3   100.83     LegendNANA
18:00 12.5 9.6 83 15 5   100.86     LegendNANA
19:00 9.4 7.6 89 17 6   100.91     LegendNANA
20:00 11.3 8.6 84 20 10   100.95     LegendNANA
21:00 11.5 8.3 81 21 11   100.99     LegendNANA
22:00 11.4 8.5 82 20 16   101.02     LegendNANA
23:00 11.3 8.7 84 21 15   101.09     LegendNANA

Notes on Data Quality.

Legend

  • E = Estimated
  • M = Missing
  • NA = Not Available
  • ‡ = Partner data that is not subject to review by the National Climate Archives
Date modified: